Location: Christchurch
(43.5330°S, 172.6330°E)
Time: 18:00:07
(UTC+13:00)

ATLAS 3B R/B - Pass Details

Date: 24 January 2019
Orbit: 1028 x 1166 km, 63.8° (Epoch: 07 October)

Event Time Altitude Azimuth Distance (km) Brightness Sun altitude
Exits shadow 22:19:05 15° 59° (ENE) 2,671 4.1 -12.0°
Maximum altitude 22:20:55 16° 76° (ENE) 2,593 4.2 -12.2°
Drops below altitude 10° 22:25:02 10° 111° (ESE) 3,062 4.8 -12.8°
Sets 22:28:58 0° 130° (SE) 4,050 5.7 -13.3°
